Location: Unspecified
(0.0000°N, 0.0000°E)
Time: 22:44:27
(UTC+00:00)

NTS 1 - Pass Details

Date: 11 June 2023
Orbit: 13478 x 13741 km, 124.8° (Epoch: 24 September)

Event Time Altitude Azimuth Distance (km) Brightness Sun altitude
Rises 05:09:43 0° 30° (NNE) 18,915 ? -11.5°
Reaches altitude 10° 05:22:05 10° 24° (NNE) 17,857 ? -8.6°
Maximum altitude 06:13:51 38° 328° (NNW) 15,521 ? 3.3°
Drops below altitude 10° 07:07:52 10° 268° (W) 18,000 ? 15.7°
Sets 07:21:37 0° 259° (W) 19,083 ? 18.8°
